This demonstration page uses our WeatherBlox Daily Observations layout. Learn more.

41.55636, -103.73856

Hourly Observations for August 27, 2016

Temp ( °F °C ) Dew Point ( °F °C ) Humidity (%) Winds ( mph kmh ) Pressure ( in mb ) Visibility ( mi km ) Precip ( " mm )
12:53 am 00:53 Mostly Clear 56 13.3 52 11.1 87 87 ESE 9 15 29.99 1016 10 16.0934 0 0
1:53 am 01:53 Clear 54 12.2 51 10.6 90 90 E 7 11 29.96 1015 10 16.0934 0 0
2:53 am 02:53 Clear 52 11.1 50 10 93 93 SE 6 9 29.97 1015 10 16.0934 0 0
3:53 am 03:53 Clear 52 11.1 50 10 93 93 SE 8 13 29.97 1015 8 12.87472 0 0
4:03 am 04:03 Partly Cloudy 54 12 52 11 94 94 E 7 11 30 1016 8 12.87472 0 0
4:11 am 04:11 Mostly Cloudy with Mist and Fog 53 11.7 51 10.6 93 93 ESE 9 15 30 1016 2 3.21868 0 0
4:15 am 04:15 Mostly Cloudy with Mist and Fog 53 11.7 52 11.1 96 96 ESE 10 17 30 1016 0.75 1.207005 0 0
4:29 am 04:29 Mostly Cloudy with Fog 53 11.7 52 11.1 96 96 SE 9 15 30 1016 0.25 0.402335 0 0
4:53 am 04:53 Mostly Cloudy with Fog 54 12.2 53 11.7 97 97 SE 9 15 29.97 1015 0.25 0.402335 0 0
5:07 am 05:07 Mostly Cloudy with Fog 54 12.2 53 11.7 97 97 SE 9 15 30 1016 0.25 0.402335 0 0
5:16 am 05:16 Mostly Cloudy with Fog 54 12 54 12 100 100 SE 8 13 30 1016 0.25 0.402335 0 0
5:34 am 05:34 Mostly Cloudy with Fog 54 12 54 12 100 100 SE 9 15 30 1016 0.5 0.80467 0 0
5:45 am 05:45 Mostly Cloudy with Fog 54 12.2 53 11.7 97 97 SE 8 13 30 1016 0.25 0.402335 0 0
5:53 am 05:53 Mostly Cloudy with Fog 54 12.2 53 11.7 97 97 SE 7 11 29.97 1015 0.25 0.402335 0 0
6:53 am 06:53 Mostly Cloudy with Fog 54 12.2 52 11.1 93 93 SE 7 11 29.98 1015 5 8.0467 0 0
7:01 am 07:01 Mostly Cloudy with Fog 54 12.2 53 11.7 97 97 SE 6 9 30 1016 5 8.0467 0 0
7:25 am 07:25 Mostly Cloudy with Fog 54 12.2 53 11.7 97 97 ESE 6 9 30.03 1017 5 8.0467 0 0
7:53 am 07:53 Mostly Cloudy with Fog 54 12.2 53 11.7 97 97 SE 5 7 30.01 1016 0.25 0.402335 0 0
8:53 am 08:53 Mostly Cloudy with Fog 55 12.8 54 12.2 96 96 S 3 6 30.01 1016 0.5 0.80467 0 0
9:03 am 09:03 Cloudy with Mist and Fog 55 13 54 12 94 94 SSE 6 9 30 1016 2 3.21868 0 0
9:13 am 09:13 Cloudy with Mist and Fog 55 12.8 54 12.2 96 96 Calm 29.97 1015 3 4.82802 0 0
9:17 am 09:17 Cloudy with Mist and Fog 55 12.8 54 12.2 96 96 Calm 29.97 1015 1.75 2.816345 0 0
9:27 am 09:27 Cloudy with Mist and Fog 55 12.8 54 12.2 96 96 Calm 30 1016 3 4.82802 0 0
9:53 am 09:53 Cloudy 61 16.1 55 12.8 81 81 Calm 29.99 1016 10 16.0934 0 0
10:10 am 10:10 Partly Cloudy 64 18 55 13 73 73 VRB 3 6 29.91 1013 10 16.0934 0 0
10:53 am 10:53 Sunny 69 20.6 56 13.3 63 63 SE 6 9 29.95 1014 10 16.0934 0 0
11:53 am 11:53 Sunny 77 25 50 10 39 39 VRB 5 7 29.93 1014 10 16.0934 0 0
12:53 pm 12:53 Sunny 81 27.2 48 8.9 32 32 Calm 29.91 1013 10 16.0934 0 0
1:53 pm 13:53 Sunny 83 28.3 43 6.1 24 24 VRB 5 7 29.88 1012 10 16.0934 0 0
2:53 pm 14:53 Sunny 85 29.4 49 9.4 29 29 ESE 12 19 29.86 1011 10 16.0934 0 0
3:53 pm 15:53 Sunny 84 28.9 49 9.4 30 30 E 12 19 29.85 1011 10 16.0934 0 0
4:53 pm 16:53 Sunny 84 28.9 52 11.1 33 33 E 13 20 29.84 1011 10 16.0934 0 0
5:53 pm 17:53 Mostly Sunny 82 27.8 53 11.7 37 37 E 10 17 29.85 1011 10 16.0934 0 0
6:53 pm 18:53 Sunny 78 25.6 56 13.3 47 47 ESE 7 11 29.86 1011 10 16.0934 0 0
7:53 pm 19:53 Clear 69 20.6 54 12.2 59 59 ESE 8 13 29.88 1012 10 16.0934 0 0
8:53 pm 20:53 Clear 66 18.9 53 11.7 63 63 ESE 9 15 29.91 1013 10 16.0934 0 0
9:53 pm 21:53 Clear 62 16.7 54 12.2 75 75 ESE 8 13 29.93 1014 10 16.0934 0 0
10:53 pm 22:53 Clear 62 16.7 55 12.8 78 78 E 9 15 29.93 1014 10 16.0934 0 0
11:53 pm 23:53 Clear 62 16.7 55 12.8 78 78 E 8 13 29.91 1013 10 16.0934 0 0

Powered by AerisWeather